Starlink 30885

operational
NORAD ID: 58361 Int'l Des: 2023-177 Owner: SPXS Country: US Constellation: starlink
LEOCIRCULAR

关于 Starlink 30885

正在加载描述...

实时位置

正在加载3D地球...

即将过境

高度历史

Altitude vs Time

uPlot chart will show altitude changes over time

两行轨道根数

1 58361U 23177L 26036.71901759 .00000811 00000-0 75068-4 0 9999
2 58361 43.0015 165.5620 0001494 272.2887 87.7784 15.02541127123417
Epoch: Feb 5, 2026 • Age: 19 hours

当前状态

高度 570.9 km
速度 7.58 km/s
星下点 -41.82°S, 98.08°E
发射日期 Nov 18, 2023
运行时间 2.2 years
类型 internet

技术详情

分类 Payload
质量 730.00 kg
干质量 700.00 kg
总质量 730.00 kg
长度 0.30 m
直径 4.10 m
跨度 29.00 m
形状 Box + pan
制造商 SPXS
平台类型 Starlink V2M
阶段状态 In Orbit
所有者/国家 SPXS/US

大型星座

Loading constellations...